| time (UTC) | temp F | wind direction | speed MPH | gust MPH | rain 1hr in | rain 24hr in | rain mn in | humidity % | barometer mb |
| 20260504223748 | 57 | 284 | 3.0 | 11.0 | 0.02 | 0.09 | 0.09 | 65 | 820.6 |
| 20260504223251 | 58 | 310 | 1.0 | 4.0 | 0.01 | 0.08 | 0.08 | 66 | 820.7 |
| 20260504222726 | 58 | 306 | 1.0 | 5.0 | 0.00 | 0.07 | 0.07 | 54 | 820.6 |
| 20260504222159 | 58 | 306 | 1.0 | 5.0 | 0.00 | 0.07 | 0.07 | 53 | 820.4 |
| 20260504221633 | 58 | 65 | 3.0 | 10.0 | 0.00 | 0.07 | 0.07 | 54 | 820.4 |
| 20260504221130 | 59 | 65 | 7.0 | 11.0 | 0.00 | 0.07 | 0.07 | 53 | 820.0 |
| 20260504220606 | 59 | 35 | 7.0 | 13.0 | 0.00 | 0.07 | 0.07 | 54 | 819.8 |
| 20260504220046 | 59 | 24 | 6.0 | 13.0 | 0.00 | 0.07 | 0.07 | 55 | 819.5 |
| 20260504215542 | 59 | 40 | 7.0 | 11.0 | 0.00 | 0.07 | 0.07 | 57 | 819.4 |
| 20260504215039 | 58 | 48 | 8.0 | 13.0 | 0.00 | 0.07 | 0.07 | 57 | 819.4 |
| 20260504214537 | 58 | 48 | 9.0 | 13.0 | 0.00 | 0.07 | 0.07 | 59 | 819.4 |
| 20260504214038 | 58 | 51 | 9.0 | 16.0 | 0.01 | 0.07 | 0.07 | 58 | 819.5 |
| 20260504213530 | 58 | 65 | 9.0 | 16.0 | 0.02 | 0.07 | 0.07 | 60 | 819.6 |
| 20260504213030 | 58 | 69 | 10.0 | 16.0 | 0.05 | 0.07 | 0.07 | 58 | 819.8 |
| 20260504212528 | 58 | 62 | 13.0 | 22.0 | 0.07 | 0.07 | 0.07 | 60 | 819.9 |
| 20260504212249 | 59 | 32 | 14.0 | 22.0 | 0.07 | 0.07 | 0.07 | 58 | 819.9 |
| 20260504211027 | 57 | 60 | 11.0 | 19.0 | 0.07 | 0.07 | 0.07 | 66 | 820.2 |
| 20260504210528 | 56 | 94 | 11.0 | 17.0 | 0.07 | 0.07 | 0.07 | 65 | 820.2 |
| 20260504210025 | 56 | 83 | 11.0 | 15.0 | 0.07 | 0.07 | 0.07 | 67 | 820.2 |
| 20260504205523 | 56 | 88 | 10.0 | 17.0 | 0.07 | 0.07 | 0.07 | 64 | 820.2 |
| 20260504205025 | 56 | 71 | 9.0 | 16.0 | 0.07 | 0.07 | 0.07 | 64 | 820.0 |
| 20260504204524 | 56 | 69 | 12.0 | 22.0 | 0.07 | 0.07 | 0.07 | 60 | 820.1 |
| 20260504204256 | 57 | 66 | 12.0 | 22.0 | 0.06 | 0.06 | 0.06 | 55 | 820.0 |
| 20260504203504 | 59 | 52 | 11.0 | 18.0 | 0.05 | 0.05 | 0.05 | 53 | 819.9 |
| 20260504203233 | 62 | 5 | 12.0 | 18.0 | 0.01 | 0.01 | 0.01 | 51 | 819.7 |
| 20260504202502 | 65 | 348 | 10.0 | 17.0 | 0.00 | 0.00 | 0.00 | 43 | 819.5 |
| 20260504202227 | 67 | 335 | 9.0 | 15.0 | 0.00 | 0.00 | 0.00 | 34 | 819.3 |
| 20260504201503 | 67 | 330 | 9.0 | 15.0 | 0.00 | 0.00 | 0.00 | 34 | 819.1 |
| 20260504200943 | 68 | 337 | 8.0 | 13.0 | 0.00 | 0.00 | 0.00 | 34 | 819.0 |
| 20260504195941 | 69 | 339 | 9.0 | 18.0 | 0.00 | 0.00 | 0.00 | 33 | 818.7 |
| 20260504195441 | 69 | 10 | 12.0 | 18.0 | 0.00 | 0.00 | 0.00 | 33 | 818.7 |
| 20260504194942 | 69 | 40 | 13.0 | 21.0 | 0.00 | 0.00 | 0.00 | 33 | 818.6 |
| 20260504194431 | 69 | 42 | 12.0 | 21.0 | 0.00 | 0.00 | 0.00 | 34 | 818.4 |
| 20260504194146 | 69 | 348 | 12.0 | 21.0 | 0.00 | 0.00 | 0.00 | 34 | 818.5 |
| 20260504193428 | 69 | 343 | 13.0 | 21.0 | 0.00 | 0.00 | 0.00 | 33 | 818.8 |
| 20260504192928 | 70 | 15 | 13.0 | 19.0 | 0.00 | 0.00 | 0.00 | 33 | 818.7 |
| 20260504192428 | 71 | 32 | 11.0 | 17.0 | 0.00 | 0.00 | 0.00 | 32 | 818.8 |
| 20260504191927 | 71 | 335 | 9.0 | 17.0 | 0.00 | 0.00 | 0.00 | 31 | 818.9 |
| 20260504191416 | 71 | 312 | 10.0 | 15.0 | 0.00 | 0.00 | 0.00 | 32 | 818.9 |
| 20260504190913 | 70 | 306 | 10.0 | 18.0 | 0.00 | 0.00 | 0.00 | 32 | 819.0 |
| 20260504190414 | 70 | 332 | 10.0 | 18.0 | 0.00 | 0.00 | 0.00 | 33 | 819.0 |
| 20260504185917 | 69 | 0 | 10.0 | 16.0 | 0.00 | 0.00 | 0.00 | 33 | 819.1 |
| 20260504185353 | 69 | 261 | 10.0 | 16.0 | 0.00 | 0.00 | 0.00 | 33 | 819.2 |
| 20260504184824 | 69 | 292 | 10.0 | 16.0 | 0.00 | 0.00 | 0.00 | 34 | 819.2 |
| 20260504184255 | 68 | 293 | 11.0 | 16.0 | 0.00 | 0.00 | 0.00 | 34 | 819.2 |
| 20260504183726 | 68 | 293 | 11.0 | 16.0 | 0.00 | 0.00 | 0.00 | 33 | 819.3 |
| 20260504183216 | 68 | 223 | 10.0 | 15.0 | 0.00 | 0.00 | 0.00 | 34 | 819.4 |
| 20260504182909 | 68 | 257 | 8.0 | 15.0 | 0.00 | 0.00 | 0.00 | 34 | 819.4 |
| 20260504182131 | 67 | 284 | 9.0 | 17.0 | 0.00 | 0.00 | 0.00 | 34 | 819.4 |
| 20260504181633 | 67 | 284 | 11.0 | 17.0 | 0.00 | 0.00 | 0.00 | 34 | 819.6 |
| 20260504181108 | 67 | 309 | 11.0 | 19.0 | 0.00 | 0.00 | 0.00 | 35 | 819.6 |
| 20260504180611 | 66 | 240 | 11.0 | 19.0 | 0.00 | 0.00 | 0.00 | 36 | 819.6 |
| 20260504180045 | 66 | 242 | 12.0 | 18.0 | 0.00 | 0.00 | 0.00 | 36 | 819.7 |
| 20260504175734 | 65 | 271 | 11.0 | 20.0 | 0.00 | 0.00 | 0.00 | 36 | 819.9 |
| 20260504174958 | 65 | 271 | 11.0 | 20.0 | 0.00 | 0.00 | 0.00 | 36 | 820.0 |
| 20260504174502 | 65 | 257 | 13.0 | 19.0 | 0.00 | 0.00 | 0.00 | 37 | 820.1 |
| 20260504173933 | 65 | 232 | 12.0 | 20.0 | 0.00 | 0.00 | 0.00 | 37 | 820.2 |
| 20260504173405 | 64 | 252 | 11.0 | 21.0 | 0.00 | 0.00 | 0.00 | 37 | 820.3 |
| 20260504173100 | 64 | 232 | 11.0 | 21.0 | 0.00 | 0.00 | 0.00 | 37 | 820.2 |
| 20260504172325 | 64 | 263 | 10.0 | 22.0 | 0.00 | 0.00 | 0.00 | 37 | 820.3 |
| 20260504171254 | 64 | 265 | 14.0 | 22.0 | 0.00 | 0.00 | 0.00 | 37 | 820.5 |
| 20260504170727 | 63 | 272 | 16.0 | 25.0 | 0.00 | 0.00 | 0.00 | 37 | 820.4 |
| 20260504170159 | 63 | 290 | 16.0 | 25.0 | 0.00 | 0.00 | 0.00 | 37 | 820.3 |
| 20260504160110 | 63 | 288 | 8.0 | 21.0 | 0.00 | 0.00 | 0.00 | 37 | 820.4 |
| 20260504150958 | 63 | 290 | 13.0 | 22.0 | 0.00 | 0.00 | 0.00 | 35 | 820.4 |
| 20260504150425 | 63 | 280 | 13.0 | 22.0 | 0.00 | 0.00 | 0.00 | 35 | 820.5 |
| 20260504141052 | 63 | 249 | 8.0 | 15.0 | 0.00 | 0.00 | 0.00 | 34 | 820.5 |
| 20260504140551 | 62 | 254 | 8.0 | 15.0 | 0.00 | 0.00 | 0.00 | 34 | 820.5 |
| 20260504130805 | 61 | 0 | 11.0 | 20.0 | 0.00 | 0.00 | 0.00 | 34 | 820.3 |
| 20260504110321 | 47 | 0 | 2.0 | 4.0 | 0.00 | 0.00 | 0.00 | 47 | 820.4 |
| 20260504100452 | 47 | 0 | 2.0 | 4.0 | 0.00 | 0.00 | 0.00 | 47 | 820.5 |
| 20260504081643 | 50 | 0 | 1.0 | 3.0 | 0.00 | 0.00 | 0.00 | 43 | 821.1 |
| 20260504081141 | 50 | 0 | 1.0 | 4.0 | 0.00 | 0.00 | 0.00 | 43 | 821.2 |
| 20260504080640 | 50 | 0 | 1.0 | 4.0 | 0.00 | 0.00 | 0.00 | 43 | 821.1 |
| 20260504080142 | 50 | 0 | 2.0 | 4.0 | 0.00 | 0.00 | 0.00 | 43 | 821.3 |
| 20260504050453 | 58 | 26 | 6.0 | 10.0 | 0.00 | 0.00 | 0.00 | 36 | 822.1 |
| 20260504045949 | 59 | 13 | 6.0 | 10.0 | 0.00 | 0.00 | 0.00 | 35 | 822.1 |
| 20260504045709 | 60 | 25 | 5.0 | 10.0 | 0.00 | 0.00 | 0.00 | 34 | 821.9 |
| 20260504044950 | 61 | 98 | 4.0 | 10.0 | 0.00 | 0.00 | 0.00 | 32 | 821.9 |
| 20260504044450 | 61 | 260 | 5.0 | 9.0 | 0.00 | 0.00 | 0.00 | 32 | 821.8 |
| 20260504043449 | 62 | 275 | 3.0 | 7.0 | 0.00 | 0.00 | 0.00 | 32 | 821.8 |
| 20260504042949 | 62 | 257 | 4.0 | 7.0 | 0.00 | 0.00 | 0.00 | 33 | 821.8 |
| 20260504042448 | 62 | 223 | 5.0 | 8.0 | 0.00 | 0.00 | 0.00 | 33 | 821.8 |
| 20260504041947 | 62 | 240 | 5.0 | 8.0 | 0.00 | 0.00 | 0.00 | 32 | 821.8 |
| 20260504041448 | 62 | 244 | 4.0 | 8.0 | 0.00 | 0.00 | 0.00 | 33 | 821.8 |
| 20260504040946 | 62 | 236 | 4.0 | 7.0 | 0.00 | 0.00 | 0.00 | 33 | 821.9 |
| 20260504040450 | 62 | 242 | 5.0 | 7.0 | 0.00 | 0.00 | 0.00 | 33 | 821.9 |
| 20260504035925 | 62 | 247 | 5.0 | 7.0 | 0.00 | 0.00 | 0.00 | 33 | 821.9 |
| 20260504035354 | 62 | 256 | 5.0 | 9.0 | 0.00 | 0.00 | 0.00 | 33 | 821.9 |
| 20260504034822 | 62 | 241 | 4.0 | 9.0 | 0.00 | 0.00 | 0.00 | 33 | 821.9 |
| 20260504034251 | 62 | 238 | 5.0 | 8.0 | 0.00 | 0.00 | 0.00 | 33 | 822.0 |
| 20260504033755 | 62 | 242 | 5.0 | 8.0 | 0.00 | 0.00 | 0.00 | 33 | 822.1 |
| 20260504033230 | 62 | 234 | 5.0 | 8.0 | 0.00 | 0.00 | 0.00 | 33 | 822.1 |
| 20260504032728 | 62 | 232 | 5.0 | 8.0 | 0.00 | 0.00 | 0.00 | 34 | 822.0 |
| 20260504032227 | 62 | 240 | 5.0 | 7.0 | 0.00 | 0.00 | 0.00 | 34 | 822.1 |
| 20260504031716 | 62 | 246 | 4.0 | 6.0 | 0.00 | 0.00 | 0.00 | 34 | 822.0 |
| 20260504031414 | 62 | 254 | 4.0 | 6.0 | 0.00 | 0.00 | 0.00 | 33 | 822.0 |
| 20260504030652 | 62 | 254 | 4.0 | 6.0 | 0.00 | 0.00 | 0.00 | 33 | 822.0 |
| 20260504030122 | 62 | 245 | 4.0 | 8.0 | 0.00 | 0.00 | 0.00 | 33 | 822.0 |
| 20260504025812 | 62 | 246 | 4.0 | 8.0 | 0.00 | 0.00 | 0.00 | 33 | 822.0 |
| 20260504025240 | 63 | 259 | 4.0 | 6.0 | 0.00 | 0.00 | 0.00 | 32 | 821.9 |
| 20260504023920 | 64 | 246 | 5.0 | 8.0 | 0.00 | 0.00 | 0.00 | 31 | 821.9 |
| 20260504023357 | 64 | 243 | 5.0 | 8.0 | 0.00 | 0.00 | 0.00 | 31 | 821.7 |
| 20260504022859 | 65 | 240 | 5.0 | 8.0 | 0.00 | 0.00 | 0.00 | 31 | 821.7 |
| 20260504022613 | 65 | 242 | 6.0 | 9.0 | 0.00 | 0.00 | 0.00 | 31 | 821.7 |
| 20260504021854 | 65 | 248 | 6.0 | 10.0 | 0.00 | 0.00 | 0.00 | 31 | 821.8 |
| 20260504021354 | 65 | 273 | 6.0 | 10.0 | 0.00 | 0.00 | 0.00 | 31 | 821.8 |
| 20260504020851 | 65 | 245 | 5.0 | 9.0 | 0.00 | 0.00 | 0.00 | 31 | 821.8 |
| 20260504020340 | 65 | 238 | 6.0 | 8.0 | 0.00 | 0.00 | 0.00 | 30 | 821.8 |
| 20260504015840 | 65 | 254 | 6.0 | 10.0 | 0.00 | 0.00 | 0.00 | 30 | 821.8 |
| 20260504015339 | 66 | 250 | 5.0 | 10.0 | 0.00 | 0.00 | 0.00 | 30 | 821.7 |
| 20260504014840 | 66 | 242 | 5.0 | 9.0 | 0.00 | 0.00 | 0.00 | 30 | 821.7 |
| 20260504014339 | 66 | 261 | 5.0 | 9.0 | 0.00 | 0.00 | 0.00 | 30 | 821.8 |
| 20260504013836 | 66 | 247 | 4.0 | 8.0 | 0.00 | 0.00 | 0.00 | 30 | 821.7 |
| 20260504013334 | 66 | 262 | 6.0 | 9.0 | 0.00 | 0.00 | 0.00 | 30 | 821.7 |
| 20260504012834 | 66 | 246 | 6.0 | 11.0 | 0.00 | 0.00 | 0.00 | 30 | 821.7 |
| 20260504012554 | 67 | 259 | 6.0 | 11.0 | 0.00 | 0.00 | 0.00 | 30 | 821.6 |
| 20260504011832 | 67 | 274 | 8.0 | 14.0 | 0.00 | 0.00 | 0.00 | 30 | 821.7 |
| 20260504011330 | 67 | 292 | 8.0 | 14.0 | 0.00 | 0.00 | 0.00 | 30 | 821.8 |
| 20260504010832 | 67 | 296 | 8.0 | 14.0 | 0.00 | 0.00 | 0.00 | 30 | 821.7 |
| 20260504010318 | 67 | 279 | 8.0 | 14.0 | 0.00 | 0.00 | 0.00 | 30 | 821.7 |
| 20260504010038 | 67 | 283 | 8.0 | 18.0 | 0.00 | 0.00 | 0.00 | 31 | 821.7 |
| 20260504005533 | 67 | 248 | 9.0 | 18.0 | 0.00 | 0.00 | 0.00 | 30 | 821.8 |
| 20260504004812 | 68 | 288 | 8.0 | 14.0 | 0.00 | 0.00 | 0.00 | 30 | 821.8 |
| 20260504004312 | 68 | 267 | 9.0 | 17.0 | 0.00 | 0.00 | 0.00 | 31 | 821.9 |
| 20260504003812 | 68 | 287 | 9.0 | 17.0 | 0.00 | 0.00 | 0.00 | 31 | 822.1 |
| 20260504002758 | 68 | 261 | 5.0 | 13.0 | 0.00 | 0.00 | 0.00 | 30 | 822.1 |
| 20260504002300 | 68 | 262 | 7.0 | 13.0 | 0.00 | 0.00 | 0.00 | 30 | 822.1 |
| 20260504001232 | 69 | 289 | 8.0 | 19.0 | 0.00 | 0.00 | 0.00 | 30 | 822.2 |
| 20260504000947 | 69 | 239 | 11.0 | 20.0 | 0.00 | 0.00 | 0.00 | 29 | 822.2 |
| 20260504000230 | 69 | 256 | 12.0 | 20.0 | 0.00 | 0.00 | 0.00 | 29 | 822.3 |
| 20260503235730 | 69 | 261 | 10.0 | 18.0 | 0.00 | 0.00 | 0.00 | 29 | 822.3 |
| 20260503235229 | 68 | 303 | 10.0 | 18.0 | 0.00 | 0.00 | 0.00 | 29 | 822.2 |
| 20260503234957 | 68 | 261 | 9.0 | 20.0 | 0.00 | 0.00 | 0.00 | 30 | 822.3 |
| 20260503234228 | 68 | 269 | 9.0 | 20.0 | 0.00 | 0.00 | 0.00 | 30 | 822.2 |
| 20260503233729 | 67 | 330 | 14.0 | 22.0 | 0.00 | 0.00 | 0.00 | 30 | 822.2 |
| 20260503233217 | 67 | 308 | 17.0 | 24.0 | 0.00 | 0.00 | 0.00 | 30 | 822.4 |
| 20260503232704 | 67 | 300 | 17.0 | 27.0 | 0.00 | 0.00 | 0.00 | 31 | 822.4 |
| 20260503232156 | 68 | 338 | 15.0 | 27.0 | 0.00 | 0.00 | 0.00 | 31 | 822.4 |
| 20260503231659 | 69 | 271 | 15.0 | 26.0 | 0.00 | 0.00 | 0.00 | 29 | 822.3 |
| 20260503231349 | 69 | 290 | 16.0 | 24.0 | 0.00 | 0.00 | 0.00 | 28 | 822.3 |
| 20260503230558 | 70 | 345 | 16.0 | 24.0 | 0.00 | 0.00 | 0.00 | 26 | 822.1 |
| 20260503230034 | 72 | 329 | 12.0 | 24.0 | 0.00 | 0.00 | 0.00 | 26 | 822.0 |
| 20260503225538 | 72 | 311 | 8.0 | 16.0 | 0.00 | 0.00 | 0.00 | 26 | 822.1 |
| 20260503225012 | 72 | 289 | 9.0 | 14.0 | 0.00 | 0.00 | 0.00 | 27 | 822.0 |
| 20260503224506 | 71 | 325 | 10.0 | 16.0 | 0.00 | 0.00 | 0.00 | 27 | 822.1 |
| 20260503224007 | 71 | 317 | 13.0 | 25.0 | 0.00 | 0.00 | 0.00 | 27 | 822.2 |